Погода в Травниках

Россия / Челябинская область     54°54′31″N   60°33′43″E
темп.,
°C
ветер,
м/с
пор.,
м/с
влажн.,
%
обл.,
%
осадки,
мм/ч
давл.,
гПа
погр.,
м
18 мая, вт
вт1823:00+19зюз33547 0.1 101735
02:00+14ссв488845 0.4 1018151
05:00+14ююз458536 0.6 101770
08:00+16юз5875100 1.3 1016161
11:00+24зсз57460 1.3 10151255
14:00+26сз67310 0.0 10142493
17:00+26ссз67306 0.0 10142817
20:00+18ссв511635 0.2 1017625
19 мая, ср
ср1923:00+15ссв7127455 0.3 1019704
02:00+11ссв4108390 0.0 1021518
05:00+12св576478 0.0 10221021
08:00+13всв5762100 0.0 10231132
11:00+16всв56505 0.0 10231290
14:00+19всв56425 0.0 10231502
17:00+19св44405 0.0 10231610
20:00+16св3355100 0.0 102357
20 мая, чт
чт2023:00+12всв226473 0.0 102411
02:00+10ю116984 0.0 102510
05:00+9сз117436 0.0 102610
08:00+15юз115721 0.0 1026268
11:00+19ю224025 0.0 10251291
14:00+22ююв33335 0.0 10241622
17:00+23ююз33320 0.0 10231630
20:00+19ю33470 0.0 102329
21 мая, пт
пт2123:00+15ююз33525 0.0 102431
02:00+13зюз34550 0.0 102447
05:00+12зюз33590 0.0 102427
08:00+18юз35460 0.0 1024233
11:00+23юз33320 0.0 10241312
14:00+25ююз55280 0.0 10231853
17:00+25ююз56295 0.0 10222003
20:00+20ююз36480 0.0 1022100
22 мая, сб
сб2223:00+16юз35520 0.0 102367
02:00+15юз46520 0.0 102386
05:00+14з34650 0.0 102557
08:00+20з22500 0.0 1025191
11:00+25юз35310 0.0 10241782
14:00+26ююз66260 0.0 10232536
17:00+26ююз55275 0.0 10221388
20:00+23сз22426 0.0 102324